Time,TemperatureF,DewpointF,PressureIn,WindDirection,WindDirectionDegrees,WindSpeedMPH,WindSpeedGustMPH,Humidity,HourlyPrecipIn,Conditions,Clouds,dailyrainin,SoftwareType,DateUTC
2013-02-15 00:04:00,13.3,-4.6,30.06,NNW,338,4.0,4.7,44,0.00,,---,0.00,VWS V13.01,2013-02-15 06:04:00,
2013-02-15 00:10:00,13.3,-4.6,30.06,North,349,4.0,4.7,44,0.00,,---,0.00,VWS V13.01,2013-02-15 06:10:00,
2013-02-15 00:16:00,13.1,-4.7,30.06,NNW,337,4.5,4.5,44,0.00,,---,0.00,VWS V13.01,2013-02-15 06:16:00,
2013-02-15 00:21:00,12.9,-4.9,30.06,NNW,338,3.1,4.0,44,0.00,,---,0.00,VWS V13.01,2013-02-15 06:21:00,
2013-02-15 00:27:00,12.9,-4.9,30.06,NNW,339,4.0,4.5,44,0.00,,---,0.00,VWS V13.01,2013-02-15 06:27:00,
2013-02-15 00:33:00,12.9,-4.9,30.06,NNW,339,3.1,4.0,44,0.00,,---,0.00,VWS V13.01,2013-02-15 06:33:00,
2013-02-15 00:38:00,12.9,-4.9,30.06,NNW,346,2.7,4.7,44,0.00,,---,0.00,VWS V13.01,2013-02-15 06:38:00,
2013-02-15 00:44:00,12.9,-4.9,30.06,North,6,2.7,3.1,44,0.00,,---,0.00,VWS V13.01,2013-02-15 06:44:00,
2013-02-15 00:49:00,12.7,-5.0,30.06,North,7,4.5,4.7,44,0.00,,---,0.00,VWS V13.01,2013-02-15 06:49:00,
2013-02-15 00:55:00,12.7,-5.0,30.06,North,5,0.0,0.0,44,0.00,,---,0.00,VWS V13.01,2013-02-15 06:55:00,
2013-02-15 01:01:00,12.7,-5.0,30.06,North,6,0.0,0.0,44,0.00,,---,0.00,VWS V13.01,2013-02-15 07:01:00,
2013-02-15 01:06:00,12.7,-5.0,30.06,North,5,0.0,0.0,44,0.00,,---,0.00,VWS V13.01,2013-02-15 07:06:00,
2013-02-15 01:12:00,12.7,-5.0,30.06,North,5,0.0,0.0,44,0.00,,---,0.00,VWS V13.01,2013-02-15 07:12:00,
2013-02-15 01:17:00,12.7,-5.0,30.06,North,5,0.0,0.0,44,0.00,,---,0.00,VWS V13.01,2013-02-15 07:17:00,
2013-02-15 01:23:00,12.7,-5.0,30.06,North,6,3.1,3.6,44,0.00,,---,0.00,VWS V13.01,2013-02-15 07:23:00,
2013-02-15 01:28:00,12.7,-5.0,30.06,North,5,3.1,3.1,44,0.00,,---,0.00,VWS V13.01,2013-02-15 07:28:00,
2013-02-15 01:34:00,12.7,-5.0,30.06,North,5,0.0,3.1,44,0.00,,---,0.00,VWS V13.01,2013-02-15 07:34:00,
2013-02-15 01:40:00,12.7,-5.0,30.06,North,5,2.7,2.7,44,0.00,,---,0.00,VWS V13.01,2013-02-15 07:40:00,
2013-02-15 01:45:00,12.7,-5.0,30.06,North,5,0.0,0.0,44,0.00,,---,0.00,VWS V13.01,2013-02-15 07:45:00,
2013-02-15 01:51:00,12.7,-5.0,30.06,North,6,0.0,0.0,44,0.00,,---,0.00,VWS V13.01,2013-02-15 07:51:00,
2013-02-15 01:57:00,12.9,-4.9,30.06,North,5,0.0,0.0,44,0.00,,---,0.00,VWS V13.01,2013-02-15 07:57:00,
2013-02-15 02:02:00,12.9,-4.9,30.06,North,6,4.0,4.0,44,0.00,,---,0.00,VWS V13.01,2013-02-15 08:02:00,
2013-02-15 02:08:00,13.1,-4.7,30.06,North,5,3.6,4.0,44,0.00,,---,0.00,VWS V13.01,2013-02-15 08:08:00,
2013-02-15 02:13:00,13.1,-4.7,30.06,North,6,3.1,4.0,44,0.00,,---,0.00,VWS V13.01,2013-02-15 08:13:00,
2013-02-15 02:19:00,13.3,-4.6,30.06,North,5,3.1,3.6,44,0.00,,---,0.00,VWS V13.01,2013-02-15 08:19:00,
2013-02-15 02:24:00,13.3,-4.6,30.06,North,5,3.1,3.6,44,0.00,,---,0.00,VWS V13.01,2013-02-15 08:24:00,
2013-02-15 02:29:00,13.3,-4.6,30.06,North,5,4.0,4.0,44,0.00,,---,0.00,VWS V13.01,2013-02-15 08:29:00,
2013-02-15 02:34:00,13.3,-4.6,30.06,North,6,4.0,4.0,44,0.00,,---,0.00,VWS V13.01,2013-02-15 08:34:00,
2013-02-15 02:39:00,13.3,-4.6,30.06,North,5,4.0,4.7,44,0.00,,---,0.00,VWS V13.01,2013-02-15 08:39:00,
2013-02-15 02:44:00,13.3,-4.6,30.06,North,5,0.0,0.0,44,0.00,,---,0.00,VWS V13.01,2013-02-15 08:44:00,
2013-02-15 02:49:00,13.3,-4.6,30.06,North,5,0.0,0.0,44,0.00,,---,0.00,VWS V13.01,2013-02-15 08:49:00,
2013-02-15 02:54:00,13.3,-4.6,30.06,WNW,292,3.1,4.0,44,0.00,,---,0.00,VWS V13.01,2013-02-15 08:54:00,
2013-02-15 02:59:00,13.3,-4.6,30.06,NNW,338,3.6,4.0,44,0.00,,---,0.00,VWS V13.01,2013-02-15 08:59:00,
2013-02-15 03:04:00,13.3,-4.6,30.06,NNW,329,4.0,4.0,44,0.00,,---,0.00,VWS V13.01,2013-02-15 09:04:00,
2013-02-15 03:09:00,13.3,-4.6,30.06,NNW,329,3.1,3.6,44,0.00,,---,0.00,VWS V13.01,2013-02-15 09:09:00,
2013-02-15 03:14:00,13.1,-4.7,30.06,NNW,329,3.1,3.6,44,0.00,,---,0.00,VWS V13.01,2013-02-15 09:14:00,
2013-02-15 03:19:00,12.9,-4.9,30.06,NNW,328,3.6,4.5,44,0.00,,---,0.00,VWS V13.01,2013-02-15 09:19:00,
2013-02-15 03:24:00,12.9,-4.9,30.06,NNW,329,3.6,3.6,44,0.00,,---,0.00,VWS V13.01,2013-02-15 09:24:00,
2013-02-15 03:29:00,12.7,-5.0,30.06,NNW,329,3.6,4.0,44,0.00,,---,0.00,VWS V13.01,2013-02-15 09:29:00,
2013-02-15 03:34:00,12.7,-5.0,30.06,NNW,329,3.1,4.0,44,0.00,,---,0.00,VWS V13.01,2013-02-15 09:34:00,
2013-02-15 03:39:00,12.7,-5.0,30.06,East,95,3.6,4.0,44,0.00,,---,0.00,VWS V13.01,2013-02-15 09:39:00,
2013-02-15 03:44:00,12.6,-5.2,30.06,East,97,3.6,4.5,44,0.00,,---,0.00,VWS V13.01,2013-02-15 09:44:00,
2013-02-15 03:49:00,12.4,-5.4,30.06,East,96,3.1,4.0,44,0.00,,---,0.00,VWS V13.01,2013-02-15 09:49:00,
2013-02-15 03:54:00,12.2,-5.5,30.06,East,96,3.1,3.6,44,0.00,,---,0.00,VWS V13.01,2013-02-15 09:54:00,
2013-02-15 03:59:00,11.8,-5.9,30.06,East,96,0.0,0.0,44,0.00,,---,0.00,VWS V13.01,2013-02-15 09:59:00,
2013-02-15 04:04:00,11.7,-6.0,30.06,East,96,0.0,0.0,44,0.00,,---,0.00,VWS V13.01,2013-02-15 10:04:00,
2013-02-15 04:09:00,11.5,-6.2,30.06,East,96,0.0,0.0,44,0.00,,---,0.00,VWS V13.01,2013-02-15 10:09:00,
2013-02-15 04:15:00,11.3,-6.4,30.06,East,96,0.0,0.0,44,0.00,,---,0.00,VWS V13.01,2013-02-15 10:15:00,
2013-02-15 04:20:00,11.1,-6.5,30.06,East,96,0.0,0.0,44,0.00,,---,0.00,VWS V13.01,2013-02-15 10:20:00,
2013-02-15 04:25:00,10.9,-6.7,30.06,East,96,0.0,0.0,44,0.00,,---,0.00,VWS V13.01,2013-02-15 10:25:00,
2013-02-15 04:31:00,10.8,-6.8,30.09,East,96,0.0,0.0,44,0.00,,---,0.00,VWS V13.01,2013-02-15 10:31:00,
2013-02-15 04:36:00,10.4,-7.2,30.09,East,96,0.0,0.0,44,0.00,,---,0.00,VWS V13.01,2013-02-15 10:36:00,
2013-02-15 04:41:00,10.0,-7.5,30.09,East,96,0.0,0.0,44,0.00,,---,0.00,VWS V13.01,2013-02-15 10:41:00,
2013-02-15 04:46:00,9.9,-7.7,30.09,East,96,0.0,0.0,44,0.00,,---,0.00,VWS V13.01,2013-02-15 10:46:00,
2013-02-15 04:51:00,9.7,-7.8,30.09,East,96,3.1,3.6,44,0.00,,---,0.00,VWS V13.01,2013-02-15 10:51:00,
2013-02-15 04:57:00,9.5,-8.0,30.09,East,96,3.6,4.5,44,0.00,,---,0.00,VWS V13.01,2013-02-15 10:57:00,
2013-02-15 05:02:00,9.3,-8.2,30.09,East,96,3.6,3.6,44,0.00,,---,0.00,VWS V13.01,2013-02-15 11:02:00,
2013-02-15 05:08:00,9.3,-8.2,30.09,East,96,3.6,4.0,44,0.00,,---,0.00,VWS V13.01,2013-02-15 11:08:00,
2013-02-15 05:13:00,9.5,-8.0,30.09,East,96,3.6,4.5,44,0.00,,---,0.00,VWS V13.01,2013-02-15 11:13:00,
2013-02-15 05:18:00,9.5,-8.0,30.09,East,96,3.6,4.5,44,0.00,,---,0.00,VWS V13.01,2013-02-15 11:18:00,
2013-02-15 05:23:00,9.7,-7.8,30.09,East,98,3.6,4.5,44,0.00,,---,0.00,VWS V13.01,2013-02-15 11:23:00,
2013-02-15 05:28:00,9.7,-7.8,30.09,East,98,2.7,3.6,44,0.00,,---,0.00,VWS V13.01,2013-02-15 11:28:00,
2013-02-15 05:33:00,9.9,-7.7,30.09,East,98,3.6,3.6,44,0.00,,---,0.00,VWS V13.01,2013-02-15 11:33:00,
2013-02-15 05:39:00,10.0,-7.5,30.09,East,98,3.6,4.0,44,0.00,,---,0.00,VWS V13.01,2013-02-15 11:39:00,
2013-02-15 05:44:00,10.0,-7.5,30.09,East,98,3.1,3.6,44,0.00,,---,0.00,VWS V13.01,2013-02-15 11:44:00,
2013-02-15 05:49:00,10.0,-7.5,30.09,East,98,3.6,4.0,44,0.00,,---,0.00,VWS V13.01,2013-02-15 11:49:00,
2013-02-15 05:54:00,9.9,-7.7,30.09,East,98,3.1,3.1,44,0.00,,---,0.00,VWS V13.01,2013-02-15 11:54:00,
2013-02-15 05:59:00,10.0,-7.5,30.09,East,98,3.1,4.7,44,0.00,,---,0.00,VWS V13.01,2013-02-15 11:59:00,
2013-02-15 06:05:00,10.0,-7.5,30.09,East,99,2.7,4.7,44,0.00,,---,0.00,VWS V13.01,2013-02-15 12:05:00,
2013-02-15 06:11:00,9.9,-7.7,30.09,East,99,3.1,4.0,44,0.00,,---,0.00,VWS V13.01,2013-02-15 12:11:00,
2013-02-15 06:16:00,9.9,-7.7,30.09,East,99,3.6,3.6,44,0.00,,---,0.00,VWS V13.01,2013-02-15 12:16:00,
2013-02-15 06:22:00,9.9,-7.7,30.09,East,99,2.7,4.0,44,0.00,,---,0.00,VWS V13.01,2013-02-15 12:22:00,
2013-02-15 06:27:00,9.7,-7.8,30.09,East,99,0.0,0.0,44,0.00,,---,0.00,VWS V13.01,2013-02-15 12:27:00,
2013-02-15 06:33:00,9.7,-7.8,30.09,East,100,0.0,3.6,44,0.00,,---,0.00,VWS V13.01,2013-02-15 12:33:00,
2013-02-15 06:39:00,9.7,-7.8,30.09,East,99,0.0,0.0,44,0.00,,---,0.00,VWS V13.01,2013-02-15 12:39:00,
2013-02-15 06:44:00,9.7,-7.8,30.09,East,99,0.0,0.0,44,0.00,,---,0.00,VWS V13.01,2013-02-15 12:44:00,
2013-02-15 06:50:00,9.7,-7.8,30.09,East,99,0.0,3.1,44,0.00,,---,0.00,VWS V13.01,2013-02-15 12:50:00,
2013-02-15 06:55:00,9.9,-7.7,30.09,East,99,0.0,0.0,44,0.00,,---,0.00,VWS V13.01,2013-02-15 12:55:00,
2013-02-15 07:01:00,10.0,-7.5,30.12,East,99,0.0,0.0,44,0.00,,---,0.00,VWS V13.01,2013-02-15 13:01:00,
2013-02-15 07:06:00,10.2,-7.3,30.12,NW,309,4.5,4.7,44,0.00,,---,0.00,VWS V13.01,2013-02-15 13:06:00,
2013-02-15 07:11:00,10.4,-7.2,30.12,NNW,339,3.6,4.0,44,0.00,,---,0.00,VWS V13.01,2013-02-15 13:11:00,
2013-02-15 07:17:00,10.6,-7.0,30.12,WSW,244,4.7,4.7,44,0.00,,---,0.00,VWS V13.01,2013-02-15 13:17:00,
2013-02-15 07:22:00,10.8,-6.8,30.12,NW,326,4.7,5.1,44,0.00,,---,0.00,VWS V13.01,2013-02-15 13:22:00,
2013-02-15 07:27:00,10.6,-7.0,30.12,NNW,344,6.0,7.4,44,0.00,,---,0.00,VWS V13.01,2013-02-15 13:27:00,
2013-02-15 07:32:00,10.6,-7.0,30.12,North,353,4.0,4.5,44,0.00,,---,0.00,VWS V13.01,2013-02-15 13:32:00,
2013-02-15 07:37:00,10.4,-7.2,30.12,NNW,327,3.6,4.7,44,0.00,,---,0.00,VWS V13.01,2013-02-15 13:37:00,
2013-02-15 07:43:00,10.4,-7.2,30.12,NW,313,3.1,4.5,44,0.00,,---,0.00,VWS V13.01,2013-02-15 13:43:00,
2013-02-15 07:48:00,10.4,-7.2,30.12,WNW,297,4.5,5.1,44,0.00,,---,0.00,VWS V13.01,2013-02-15 13:48:00,
2013-02-15 07:53:00,10.4,-7.2,30.12,West,275,2.7,5.1,44,0.00,,---,0.00,VWS V13.01,2013-02-15 13:53:00,
2013-02-15 07:59:00,10.2,-7.3,30.15,North,353,6.9,7.4,44,0.00,,---,0.00,VWS V13.01,2013-02-15 13:59:00,
2013-02-15 08:04:00,10.2,-7.3,30.15,NNE,26,4.7,7.4,44,0.00,,---,0.00,VWS V13.01,2013-02-15 14:04:00,
2013-02-15 08:10:00,10.0,-7.5,30.15,North,0,5.1,6.0,44,0.00,,---,0.00,VWS V13.01,2013-02-15 14:10:00,
2013-02-15 08:15:00,10.0,-7.5,30.15,North,3,5.1,5.1,44,0.00,,---,0.00,VWS V13.01,2013-02-15 14:15:00,
2013-02-15 08:20:00,10.0,-7.5,30.15,NNW,342,4.0,4.7,44,0.00,,---,0.00,VWS V13.01,2013-02-15 14:20:00,
2013-02-15 08:25:00,10.2,-7.3,30.15,WNW,294,4.0,4.5,44,0.00,,---,0.00,VWS V13.01,2013-02-15 14:25:00,
2013-02-15 08:31:00,10.2,-7.3,30.15,North,357,5.6,5.6,44,0.00,,---,0.00,VWS V13.01,2013-02-15 14:31:00,
2013-02-15 08:36:00,10.2,-7.3,30.15,NNW,346,4.7,5.6,44,0.00,,---,0.00,VWS V13.01,2013-02-15 14:36:00,
2013-02-15 08:42:00,10.4,-7.2,30.15,NW,312,6.0,6.0,44,0.00,,---,0.00,VWS V13.01,2013-02-15 14:42:00,
2013-02-15 08:48:00,10.4,-7.2,30.15,NNW,344,7.4,7.4,44,0.00,,---,0.00,VWS V13.01,2013-02-15 14:48:00,
2013-02-15 08:53:00,10.2,-7.3,30.15,NNE,17,5.1,6.5,44,0.00,,---,0.00,VWS V13.01,2013-02-15 14:53:00,
2013-02-15 08:58:00,10.2,-7.3,30.15,North,357,6.5,7.8,44,0.00,,---,0.00,VWS V13.01,2013-02-15 14:58:00,
2013-02-15 09:04:00,10.2,-7.3,30.15,NNW,336,5.1,5.1,44,0.00,,---,0.00,VWS V13.01,2013-02-15 15:04:00,
2013-02-15 09:10:00,10.2,-7.3,30.15,West,269,7.4,7.4,44,0.00,,---,0.00,VWS V13.01,2013-02-15 15:10:00,
2013-02-15 09:15:00,10.0,-7.5,30.15,NNW,332,6.5,8.7,44,0.00,,---,0.00,VWS V13.01,2013-02-15 15:15:00,
2013-02-15 09:20:00,10.0,-7.5,30.15,WNW,302,5.1,6.5,44,0.00,,---,0.00,VWS V13.01,2013-02-15 15:20:00,
2013-02-15 09:26:00,10.0,-7.5,30.15,WNW,299,4.7,6.0,44,0.00,,---,0.00,VWS V13.01,2013-02-15 15:26:00,
2013-02-15 09:31:00,9.9,-7.7,30.15,NNW,340,7.4,7.4,44,0.00,,---,0.00,VWS V13.01,2013-02-15 15:31:00,
2013-02-15 09:36:00,9.9,-7.7,30.15,NNE,23,5.1,7.4,44,0.00,,---,0.00,VWS V13.01,2013-02-15 15:36:00,
2013-02-15 09:41:00,10.0,-7.5,30.15,NNE,19,5.1,6.0,44,0.00,,---,0.00,VWS V13.01,2013-02-15 15:41:00,
2013-02-15 09:47:00,10.2,-7.3,30.15,NW,306,3.6,4.5,44,0.00,,---,0.00,VWS V13.01,2013-02-15 15:47:00,
2013-02-15 09:53:00,10.2,-7.3,30.15,NNW,340,6.0,6.5,44,0.00,,---,0.00,VWS V13.01,2013-02-15 15:53:00,
2013-02-15 09:58:00,10.4,-7.2,30.18,NNE,28,5.6,7.4,44,0.00,,---,0.00,VWS V13.01,2013-02-15 15:58:00,
2013-02-15 10:04:00,10.8,-6.8,30.18,North,6,8.7,8.9,44,0.00,,---,0.00,VWS V13.01,2013-02-15 16:04:00,
2013-02-15 10:09:00,10.9,-6.7,30.18,NNE,25,5.6,6.5,44,0.00,,---,0.00,VWS V13.01,2013-02-15 16:09:00,
2013-02-15 10:15:00,10.9,-6.7,30.18,NNE,18,7.8,7.8,44,0.00,,---,0.00,VWS V13.01,2013-02-15 16:15:00,
2013-02-15 10:20:00,11.1,-6.5,30.18,NNW,348,4.7,6.0,44,0.00,,---,0.00,VWS V13.01,2013-02-15 16:20:00,
2013-02-15 10:25:00,11.1,-6.5,30.18,NW,313,5.1,6.9,44,0.00,,---,0.00,VWS V13.01,2013-02-15 16:25:00,
2013-02-15 10:31:00,11.3,-6.4,30.18,WNW,296,6.5,6.5,44,0.00,,---,0.00,VWS V13.01,2013-02-15 16:31:00,
2013-02-15 10:36:00,11.8,-5.9,30.18,NW,326,6.0,6.0,44,0.00,,---,0.00,VWS V13.01,2013-02-15 16:36:00,
2013-02-15 10:41:00,11.8,-5.9,30.18,North,357,8.9,8.9,44,0.00,,---,0.00,VWS V13.01,2013-02-15 16:41:00,
2013-02-15 10:46:00,12.0,-5.7,30.18,WNW,302,7.4,7.4,44,0.00,,---,0.00,VWS V13.01,2013-02-15 16:46:00,
2013-02-15 10:51:00,12.4,-5.4,30.18,North,7,7.4,7.4,44,0.00,,---,0.00,VWS V13.01,2013-02-15 16:51:00,
2013-02-15 10:57:00,12.9,-4.9,30.18,NNW,338,5.1,6.5,44,0.00,,---,0.00,VWS V13.01,2013-02-15 16:57:00,
2013-02-15 11:03:00,12.9,-4.9,30.18,WNW,284,5.1,8.3,44,0.00,,---,0.00,VWS V13.01,2013-02-15 17:03:00,
2013-02-15 11:08:00,12.7,-5.0,30.18,West,262,5.1,8.3,44,0.00,,---,0.00,VWS V13.01,2013-02-15 17:08:00,
2013-02-15 11:13:00,12.7,-5.0,30.18,North,10,7.8,7.8,44,0.00,,---,0.00,VWS V13.01,2013-02-15 17:13:00,
2013-02-15 11:19:00,12.9,-4.9,30.18,WNW,303,5.1,5.1,44,0.00,,---,0.00,VWS V13.01,2013-02-15 17:19:00,
2013-02-15 11:24:00,13.3,-4.6,30.18,NNW,327,4.0,6.9,44,0.00,,---,0.00,VWS V13.01,2013-02-15 17:24:00,
2013-02-15 11:30:00,13.3,-4.6,30.18,NW,307,4.5,9.8,44,0.00,,---,0.00,VWS V13.01,2013-02-15 17:30:00,
2013-02-15 11:36:00,13.5,-4.4,30.18,NW,324,3.1,7.8,44,0.00,,---,0.00,VWS V13.01,2013-02-15 17:36:00,
2013-02-15 11:43:00,14.2,-6.2,30.15,NNW,348,3.1,4.5,39,0.00,,---,0.00,VWS V13.01,2013-02-15 17:43:00,
2013-02-15 11:48:00,14.0,-6.4,30.15,NNW,327,6.0,7.8,39,0.00,,---,0.00,VWS V13.01,2013-02-15 17:48:00,
2013-02-15 11:54:00,14.5,-5.9,30.15,NNE,21,4.5,6.5,39,0.00,,---,0.00,VWS V13.01,2013-02-15 17:54:00,
2013-02-15 12:00:00,15.3,-5.8,30.15,North,357,5.6,6.9,38,0.00,,---,0.00,VWS V13.01,2013-02-15 18:00:00,
2013-02-15 12:05:00,15.3,-5.8,30.15,WNW,301,6.5,8.7,38,0.00,,---,0.00,VWS V13.01,2013-02-15 18:05:00,
2013-02-15 12:12:00,14.9,-6.7,30.15,North,353,8.3,8.7,37,0.00,,---,0.00,VWS V13.01,2013-02-15 18:12:00,
2013-02-15 12:17:00,14.4,-7.1,30.15,SSW,211,3.1,6.5,37,0.00,,---,0.00,VWS V13.01,2013-02-15 18:17:00,
2013-02-15 12:22:00,15.1,-6.5,30.15,WNW,291,4.5,6.0,37,0.00,,---,0.00,VWS V13.01,2013-02-15 18:22:00,
2013-02-15 12:28:00,15.6,-6.0,30.15,West,260,7.4,7.4,37,0.00,,---,0.00,VWS V13.01,2013-02-15 18:28:00,
2013-02-15 12:33:00,15.6,-6.0,30.15,NW,316,4.7,8.9,37,0.00,,---,0.00,VWS V13.01,2013-02-15 18:33:00,
2013-02-15 12:39:00,16.2,-5.5,30.15,North,353,5.1,7.4,37,0.00,,---,0.00,VWS V13.01,2013-02-15 18:39:00,
2013-02-15 12:45:00,14.9,-7.2,30.15,NW,318,4.5,8.3,36,0.00,,---,0.00,VWS V13.01,2013-02-15 18:45:00,
2013-02-15 12:50:00,15.1,-6.5,30.15,NNW,346,5.1,5.1,37,0.00,,---,0.00,VWS V13.01,2013-02-15 18:50:00,
2013-02-15 12:56:00,15.1,-6.5,30.15,North,357,7.4,7.4,37,0.00,,---,0.00,VWS V13.01,2013-02-15 18:56:00,
2013-02-15 13:01:00,14.5,-7.0,30.15,NNW,337,3.6,4.7,37,0.00,,---,0.00,VWS V13.01,2013-02-15 19:01:00,
2013-02-15 13:08:00,14.9,-6.7,30.15,NW,315,4.7,6.0,37,0.00,,---,0.00,VWS V13.01,2013-02-15 19:08:00,
2013-02-15 13:13:00,14.9,-7.2,30.15,NNW,345,4.5,7.4,36,0.00,,---,0.00,VWS V13.01,2013-02-15 19:13:00,
2013-02-15 13:18:00,15.3,-6.3,30.15,NNW,328,4.0,4.0,37,0.00,,---,0.00,VWS V13.01,2013-02-15 19:18:00,
2013-02-15 13:24:00,14.9,-7.2,30.15,ENE,75,6.5,7.4,36,0.00,,---,0.00,VWS V13.01,2013-02-15 19:24:00,
2013-02-15 13:29:00,14.9,-7.2,30.15,North,357,7.4,7.4,36,0.00,,---,0.00,VWS V13.01,2013-02-15 19:29:00,
2013-02-15 13:35:00,14.2,-7.9,30.15,WNW,298,6.9,7.8,36,0.00,,---,0.00,VWS V13.01,2013-02-15 19:35:00,
2013-02-15 13:40:00,14.2,-7.3,30.15,NNE,15,5.1,5.1,37,0.00,,---,0.00,VWS V13.01,2013-02-15 19:40:00,
2013-02-15 13:46:00,14.7,-6.8,30.15,WNW,300,6.0,7.8,37,0.00,,---,0.00,VWS V13.01,2013-02-15 19:46:00,
2013-02-15 13:51:00,14.4,-7.7,30.15,NW,318,6.0,6.5,36,0.00,,---,0.00,VWS V13.01,2013-02-15 19:51:00,
2013-02-15 13:56:00,14.5,-7.5,30.15,NW,314,5.6,7.8,36,0.00,,---,0.00,VWS V13.01,2013-02-15 19:56:00,
2013-02-15 14:01:00,13.8,-8.2,30.15,North,2,5.6,7.4,36,0.00,,---,0.00,VWS V13.01,2013-02-15 20:01:00,
2013-02-15 14:07:00,14.0,-7.5,30.15,West,280,6.5,6.9,37,0.00,,---,0.00,VWS V13.01,2013-02-15 20:07:00,
2013-02-15 14:12:00,14.5,-7.5,30.15,West,261,7.8,7.8,36,0.00,,---,0.00,VWS V13.01,2013-02-15 20:12:00,
2013-02-15 14:18:00,14.5,-7.5,30.15,NW,314,5.1,7.4,36,0.00,,---,0.00,VWS V13.01,2013-02-15 20:18:00,
2013-02-15 14:25:00,13.6,-8.4,30.15,NW,319,4.7,6.0,36,0.00,,---,0.00,VWS V13.01,2013-02-15 20:25:00,
2013-02-15 14:30:00,12.9,-9.0,30.15,NW,321,4.0,6.0,36,0.00,,---,0.00,VWS V13.01,2013-02-15 20:30:00,
2013-02-15 14:35:00,12.7,-9.2,30.15,North,4,4.0,5.6,36,0.00,,---,0.00,VWS V13.01,2013-02-15 20:35:00,
2013-02-15 14:41:00,12.9,-9.0,30.15,WSW,239,7.4,7.4,36,0.00,,---,0.00,VWS V13.01,2013-02-15 20:41:00,
2013-02-15 14:46:00,12.6,-9.3,30.15,NW,314,3.6,9.4,36,0.00,,---,0.00,VWS V13.01,2013-02-15 20:46:00,
2013-02-15 14:51:00,12.6,-9.3,30.15,NNE,13,4.0,5.6,36,0.00,,---,0.00,VWS V13.01,2013-02-15 20:51:00,
2013-02-15 14:56:00,13.1,-8.8,30.15,NW,307,6.0,6.5,36,0.00,,---,0.00,VWS V13.01,2013-02-15 20:56:00,
2013-02-15 15:02:00,13.8,-8.2,30.15,NNW,344,6.5,6.5,36,0.00,,---,0.00,VWS V13.01,2013-02-15 21:02:00,
2013-02-15 15:07:00,14.2,-7.3,30.15,North,357,6.0,8.3,37,0.00,,---,0.00,VWS V13.01,2013-02-15 21:07:00,
2013-02-15 15:13:00,13.6,-7.2,30.15,NNW,340,4.0,8.7,38,0.00,,---,0.00,VWS V13.01,2013-02-15 21:13:00,
2013-02-15 15:19:00,13.3,-7.6,30.15,NW,322,8.9,8.9,38,0.00,,---,0.00,VWS V13.01,2013-02-15 21:19:00,
2013-02-15 15:24:00,13.3,-7.6,30.15,West,280,4.7,8.7,38,0.00,,---,0.00,VWS V13.01,2013-02-15 21:24:00,
2013-02-15 15:29:00,12.9,-7.9,30.15,NNE,13,6.9,7.4,38,0.00,,---,0.00,VWS V13.01,2013-02-15 21:29:00,
2013-02-15 15:35:00,12.9,-7.9,30.15,NNE,16,4.5,6.5,38,0.00,,---,0.00,VWS V13.01,2013-02-15 21:35:00,
2013-02-15 15:41:00,13.1,-7.7,30.15,NW,326,3.6,5.1,38,0.00,,---,0.00,VWS V13.01,2013-02-15 21:41:00,
2013-02-15 15:46:00,13.3,-7.6,30.15,NW,322,4.7,6.5,38,0.00,,---,0.00,VWS V13.01,2013-02-15 21:46:00,
2013-02-15 15:52:00,13.3,-7.6,30.15,North,2,5.6,7.4,38,0.00,,---,0.00,VWS V13.01,2013-02-15 21:52:00,
2013-02-15 15:58:00,13.1,-7.7,30.15,West,274,6.0,7.4,38,0.00,,---,0.00,VWS V13.01,2013-02-15 21:58:00,
2013-02-15 16:03:00,13.1,-7.7,30.15,NNW,330,0.0,5.1,38,0.00,,---,0.00,VWS V13.01,2013-02-15 22:03:00,
2013-02-15 16:09:00,13.3,-7.6,30.15,North,353,8.3,8.3,38,0.00,,---,0.00,VWS V13.01,2013-02-15 22:09:00,
2013-02-15 16:14:00,13.3,-7.6,30.15,North,357,4.0,8.7,38,0.00,,---,0.00,VWS V13.01,2013-02-15 22:14:00,
2013-02-15 16:20:00,13.3,-7.6,30.15,North,353,5.6,5.6,38,0.00,,---,0.00,VWS V13.01,2013-02-15 22:20:00,
2013-02-15 16:26:00,13.1,-7.7,30.15,North,357,4.5,5.6,38,0.00,,---,0.00,VWS V13.01,2013-02-15 22:26:00,
2013-02-15 16:31:00,12.9,-7.9,30.15,North,7,6.9,6.9,38,0.00,,---,0.00,VWS V13.01,2013-02-15 22:31:00,
2013-02-15 16:36:00,12.7,-8.1,30.15,NW,325,7.8,7.8,38,0.00,,---,0.00,VWS V13.01,2013-02-15 22:36:00,
2013-02-15 16:42:00,12.4,-8.4,30.15,NW,320,4.5,4.5,38,0.00,,---,0.00,VWS V13.01,2013-02-15 22:42:00,
2013-02-15 16:48:00,12.2,-8.5,30.15,WNW,283,4.0,4.7,38,0.00,,---,0.00,VWS V13.01,2013-02-15 22:48:00,
2013-02-15 16:54:00,12.2,-8.5,30.15,North,353,5.1,6.9,38,0.00,,---,0.00,VWS V13.01,2013-02-15 22:54:00,
2013-02-15 16:59:00,12.2,-8.5,30.15,NNE,20,3.6,5.6,38,0.00,,---,0.00,VWS V13.01,2013-02-15 22:59:00,
2013-02-15 17:05:00,12.2,-8.5,30.15,NE,38,6.9,6.9,38,0.00,,---,0.00,VWS V13.01,2013-02-15 23:05:00,
2013-02-15 17:10:00,12.2,-8.5,30.15,North,357,4.7,4.7,38,0.00,,---,0.00,VWS V13.01,2013-02-15 23:10:00,
2013-02-15 17:16:00,12.0,-8.7,30.15,North,7,0.0,2.7,38,0.00,,---,0.00,VWS V13.01,2013-02-15 23:16:00,
2013-02-15 17:22:00,11.8,-8.9,30.15,NNW,334,5.1,6.0,38,0.00,,---,0.00,VWS V13.01,2013-02-15 23:22:00,
2013-02-15 17:27:00,11.7,-9.0,30.15,NNW,343,5.1,5.6,38,0.00,,---,0.00,VWS V13.01,2013-02-15 23:27:00,
2013-02-15 17:32:00,11.5,-9.2,30.15,North,353,4.0,4.0,38,0.00,,---,0.00,VWS V13.01,2013-02-15 23:32:00,
2013-02-15 17:37:00,11.3,-9.4,30.15,NNW,344,0.0,3.1,38,0.00,,---,0.00,VWS V13.01,2013-02-15 23:37:00,
2013-02-15 17:43:00,11.3,-9.4,30.15,North,2,5.1,5.6,38,0.00,,---,0.00,VWS V13.01,2013-02-15 23:43:00,
2013-02-15 17:49:00,11.5,-9.2,30.15,North,3,4.5,5.1,38,0.00,,---,0.00,VWS V13.01,2013-02-15 23:49:00,
2013-02-15 17:54:00,11.3,-9.4,30.15,NW,313,2.7,4.7,38,0.00,,---,0.00,VWS V13.01,2013-02-15 23:54:00,
2013-02-15 18:00:00,11.1,-9.5,30.18,North,4,3.6,4.7,38,0.00,,---,0.00,VWS V13.01,2013-02-16 00:00:00,
2013-02-15 18:05:00,11.1,-9.5,30.18,North,357,4.0,4.7,38,0.00,,---,0.00,VWS V13.01,2013-02-16 00:05:00,
2013-02-15 18:10:00,11.1,-9.5,30.18,NNW,330,4.5,4.5,38,0.00,,---,0.00,VWS V13.01,2013-02-16 00:10:00,
2013-02-15 18:15:00,11.1,-9.5,30.18,NNE,12,3.1,4.5,38,0.00,,---,0.00,VWS V13.01,2013-02-16 00:15:00,
2013-02-15 18:21:00,11.1,-9.5,30.18,NNE,15,8.3,8.9,38,0.00,,---,0.00,VWS V13.01,2013-02-16 00:21:00,
2013-02-15 18:26:00,11.1,-9.5,30.18,NW,311,5.1,6.0,38,0.00,,---,0.00,VWS V13.01,2013-02-16 00:26:00,
2013-02-15 18:32:00,11.1,-9.5,30.18,NNW,342,7.4,8.3,38,0.00,,---,0.00,VWS V13.01,2013-02-16 00:32:00,
2013-02-15 18:37:00,10.9,-9.7,30.18,North,357,6.5,6.5,38,0.00,,---,0.00,VWS V13.01,2013-02-16 00:37:00,
2013-02-15 18:42:00,10.8,-9.8,30.18,NW,323,4.7,6.9,38,0.00,,---,0.00,VWS V13.01,2013-02-16 00:42:00,
2013-02-15 18:47:00,10.8,-9.8,30.18,NNE,27,4.5,5.1,38,0.00,,---,0.00,VWS V13.01,2013-02-16 00:47:00,
2013-02-15 18:53:00,10.6,-10.0,30.18,North,353,4.5,7.8,38,0.00,,---,0.00,VWS V13.01,2013-02-16 00:53:00,
2013-02-15 18:58:00,10.4,-10.2,30.18,NNE,15,4.0,5.1,38,0.00,,---,0.00,VWS V13.01,2013-02-16 00:58:00,
2013-02-15 19:03:00,10.4,-10.2,30.18,NNW,332,4.5,6.0,38,0.00,,---,0.00,VWS V13.01,2013-02-16 01:03:00,
2013-02-15 19:09:00,10.2,-10.3,30.18,North,353,4.0,4.5,38,0.00,,---,0.00,VWS V13.01,2013-02-16 01:09:00,
2013-02-15 19:14:00,10.2,-10.3,30.18,WSW,255,4.0,5.1,38,0.00,,---,0.00,VWS V13.01,2013-02-16 01:14:00,
2013-02-15 19:19:00,10.2,-10.3,30.18,NNW,335,3.6,4.5,38,0.00,,---,0.00,VWS V13.01,2013-02-16 01:19:00,
2013-02-15 19:24:00,10.2,-10.3,30.18,NNW,345,0.0,0.0,38,0.00,,---,0.00,VWS V13.01,2013-02-16 01:24:00,
2013-02-15 19:29:00,10.2,-10.3,30.18,WNW,291,3.1,5.1,38,0.00,,---,0.00,VWS V13.01,2013-02-16 01:29:00,
2013-02-15 19:35:00,10.2,-10.3,30.18,NNW,339,6.0,6.0,38,0.00,,---,0.00,VWS V13.01,2013-02-16 01:35:00,
2013-02-15 19:40:00,10.2,-10.3,30.18,NNW,328,6.0,7.4,38,0.00,,---,0.00,VWS V13.01,2013-02-16 01:40:00,
2013-02-15 19:45:00,10.0,-10.5,30.18,NNW,348,4.5,6.5,38,0.00,,---,0.00,VWS V13.01,2013-02-16 01:45:00,
2013-02-15 19:50:00,9.7,-10.8,30.18,North,10,4.5,4.7,38,0.00,,---,0.00,VWS V13.01,2013-02-16 01:50:00,
2013-02-15 19:55:00,9.7,-10.8,30.18,NNW,345,3.6,3.6,38,0.00,,---,0.00,VWS V13.01,2013-02-16 01:55:00,
2013-02-15 20:00:00,9.7,-10.8,30.18,NW,316,5.6,7.4,38,0.00,,---,0.00,VWS V13.01,2013-02-16 02:00:00,
2013-02-15 20:06:00,9.7,-10.8,30.18,WNW,292,4.7,4.7,38,0.00,,---,0.00,VWS V13.01,2013-02-16 02:06:00,
2013-02-15 20:12:00,9.5,-11.0,30.18,NNW,341,2.7,5.1,38,0.00,,---,0.00,VWS V13.01,2013-02-16 02:12:00,
2013-02-15 20:17:00,9.3,-11.1,30.18,NW,318,3.1,4.5,38,0.00,,---,0.00,VWS V13.01,2013-02-16 02:17:00,
2013-02-15 20:22:00,9.3,-11.1,30.18,WNW,288,3.6,5.6,38,0.00,,---,0.00,VWS V13.01,2013-02-16 02:22:00,
2013-02-15 20:27:00,9.3,-11.1,30.18,NNW,327,5.6,6.0,38,0.00,,---,0.00,VWS V13.01,2013-02-16 02:27:00,
2013-02-15 20:32:00,9.1,-11.3,30.18,NNE,27,7.4,8.3,38,0.00,,---,0.00,VWS V13.01,2013-02-16 02:32:00,
2013-02-15 20:37:00,9.1,-11.3,30.18,NNW,344,5.1,6.0,38,0.00,,---,0.00,VWS V13.01,2013-02-16 02:37:00,
2013-02-15 20:42:00,9.1,-11.3,30.18,NNW,345,4.7,4.7,38,0.00,,---,0.00,VWS V13.01,2013-02-16 02:42:00,
2013-02-15 20:47:00,9.1,-11.3,30.18,WNW,295,3.6,4.7,38,0.00,,---,0.00,VWS V13.01,2013-02-16 02:47:00,
2013-02-15 20:52:00,9.1,-11.3,30.18,NNE,14,4.7,5.1,38,0.00,,---,0.00,VWS V13.01,2013-02-16 02:52:00,
2013-02-15 20:58:00,9.1,-11.3,30.18,NNW,346,4.5,4.5,38,0.00,,---,0.00,VWS V13.01,2013-02-16 02:58:00,
2013-02-15 21:03:00,9.1,-11.3,30.18,North,353,6.0,6.0,38,0.00,,---,0.00,VWS V13.01,2013-02-16 03:03:00,
2013-02-15 21:09:00,9.1,-11.3,30.18,NW,320,5.1,6.0,38,0.00,,---,0.00,VWS V13.01,2013-02-16 03:09:00,
2013-02-15 21:14:00,9.1,-11.3,30.15,NNW,340,5.1,6.0,38,0.00,,---,0.00,VWS V13.01,2013-02-16 03:14:00,
2013-02-15 21:19:00,9.1,-11.3,30.15,NNW,341,2.7,4.5,38,0.00,,---,0.00,VWS V13.01,2013-02-16 03:19:00,
2013-02-15 21:24:00,9.1,-11.3,30.15,West,267,4.0,4.7,38,0.00,,---,0.00,VWS V13.01,2013-02-16 03:24:00,
2013-02-15 21:30:00,9.1,-11.3,30.15,NNW,334,3.6,5.6,38,0.00,,---,0.00,VWS V13.01,2013-02-16 03:30:00,
2013-02-15 21:35:00,9.1,-11.3,30.15,North,0,4.7,4.7,38,0.00,,---,0.00,VWS V13.01,2013-02-16 03:35:00,
2013-02-15 21:40:00,9.0,-11.5,30.15,NNW,327,4.5,6.5,38,0.00,,---,0.00,VWS V13.01,2013-02-16 03:40:00,
2013-02-15 21:46:00,9.0,-11.5,30.15,NNE,28,4.0,4.7,38,0.00,,---,0.00,VWS V13.01,2013-02-16 03:46:00,
2013-02-15 21:51:00,9.0,-11.5,30.15,NNW,345,5.1,5.1,38,0.00,,---,0.00,VWS V13.01,2013-02-16 03:51:00,
2013-02-15 21:56:00,8.8,-11.6,30.15,North,353,3.1,3.6,38,0.00,,---,0.00,VWS V13.01,2013-02-16 03:56:00,
2013-02-15 22:01:00,8.8,-11.6,30.15,North,5,3.6,4.7,38,0.00,,---,0.00,VWS V13.01,2013-02-16 04:01:00,
2013-02-15 22:07:00,8.8,-11.6,30.15,North,357,4.5,5.1,38,0.00,,---,0.00,VWS V13.01,2013-02-16 04:07:00,
2013-02-15 22:12:00,8.8,-11.6,30.15,NNE,12,4.0,4.7,38,0.00,,---,0.00,VWS V13.01,2013-02-16 04:12:00,
2013-02-15 22:17:00,8.8,-11.6,30.15,NNE,29,4.7,4.7,38,0.00,,---,0.00,VWS V13.01,2013-02-16 04:17:00,
2013-02-15 22:22:00,8.8,-11.6,30.15,NW,326,5.1,5.1,38,0.00,,---,0.00,VWS V13.01,2013-02-16 04:22:00,
2013-02-15 22:27:00,8.8,-11.6,30.15,NNE,19,4.0,6.0,38,0.00,,---,0.00,VWS V13.01,2013-02-16 04:27:00,
2013-02-15 22:33:00,8.8,-11.6,30.15,North,10,3.6,4.5,38,0.00,,---,0.00,VWS V13.01,2013-02-16 04:33:00,
2013-02-15 22:39:00,8.8,-11.6,30.15,NNE,18,4.0,6.5,38,0.00,,---,0.00,VWS V13.01,2013-02-16 04:39:00,
2013-02-15 22:44:00,8.8,-11.6,30.15,ENE,66,4.7,5.6,38,0.00,,---,0.00,VWS V13.01,2013-02-16 04:44:00,
2013-02-15 22:50:00,8.8,-11.6,30.15,North,0,3.6,4.5,38,0.00,,---,0.00,VWS V13.01,2013-02-16 04:50:00,
2013-02-15 22:55:00,8.8,-11.6,30.15,NNW,335,2.7,4.0,38,0.00,,---,0.00,VWS V13.01,2013-02-16 04:55:00,
2013-02-15 23:00:00,8.6,-11.8,30.15,North,353,4.5,5.6,38,0.00,,---,0.00,VWS V13.01,2013-02-16 05:00:00,
2013-02-15 23:01:00,8.6,-11.8,30.15,WSW,249,4.5,4.5,38,0.00,,---,0.00,VWS V13.01,2013-02-16 05:01:00,
2013-02-15 23:05:00,8.6,-11.8,30.15,ENE,66,3.6,5.6,38,0.00,,---,0.00,VWS V13.01,2013-02-16 05:05:00,
2013-02-15 23:10:00,8.6,-11.8,30.15,NNW,343,4.7,4.7,38,0.00,,---,0.00,VWS V13.01,2013-02-16 05:10:00,
2013-02-15 23:15:00,8.4,-12.0,30.15,NNW,346,3.1,4.0,38,0.00,,---,0.00,VWS V13.01,2013-02-16 05:15:00,
2013-02-15 23:21:00,8.4,-12.0,30.15,NNW,341,4.0,4.5,38,0.00,,---,0.00,VWS V13.01,2013-02-16 05:21:00,
2013-02-15 23:24:00,8.4,-12.0,30.15,NNW,332,4.0,4.0,38,0.00,,---,0.00,VWS V13.01,2013-02-16 05:24:00,
2013-02-15 23:29:00,8.2,-12.1,30.15,North,3,4.0,4.5,38,0.00,,---,0.00,VWS V13.01,2013-02-16 05:29:00,
2013-02-15 23:34:00,8.1,-12.3,30.15,NNE,12,4.0,4.5,38,0.00,,---,0.00,VWS V13.01,2013-02-16 05:34:00,
2013-02-15 23:39:00,8.1,-12.3,30.15,NNW,340,4.7,5.1,38,0.00,,---,0.00,VWS V13.01,2013-02-16 05:39:00,
2013-02-15 23:45:00,7.9,-12.4,30.15,NNW,338,4.5,5.1,38,0.00,,---,0.00,VWS V13.01,2013-02-16 05:45:00,
2013-02-15 23:50:00,7.9,-12.4,30.15,NNW,338,3.1,4.0,38,0.00,,---,0.00,VWS V13.01,2013-02-16 05:50:00,
2013-02-15 23:55:00,7.9,-12.4,30.15,NNW,338,0.0,2.7,38,0.00,,---,0.00,VWS V13.01,2013-02-16 05:55:00,